Hourly Data Report for October 23, 2016

All times are specified in Local Standard Time (LST). Add 1 hour to adjust for Daylight Saving Time where and when it is observed.

RANKIN INLET A
NUNAVUT

62°48'38.000" N
92°06'53.000" W
32.30 m
2303405
71083
YRT

Download Data

Hourly Data (October 2016)
Hourly Data Report for October 23, 2016
Temp Definition
°C
Dew Point Temp Definition
°C
Rel Hum Definition
%
Wind Dir Definition
10's deg

Wind Spd Definition
km/h
Visibility Definition
km
Stn Press Definition
kPa
Hmdx Definition


Wind Chill Definition


Weather Definition


TIME
00:00 Legend Double Dagger 0.8 -0.4 92 8 22 12.9 101.76     Snow
01:00 Legend Double Dagger 1.0 -0.3 91 9 24 16.1 101.80     Snow
02:00 Legend Double Dagger 0.9 -0.1 93 9 21 16.1 101.81     Snow
03:00 Legend Double Dagger 1.5 -1.1 83 11 36 16.1 101.85     Cloudy
04:00 Legend Double Dagger 0.7 -0.5 92 8 24 16.1 101.90     LegendNANA
05:00 Legend Double Dagger 0.8 -0.2 93 8 20 16.1 101.94     LegendNANA
06:00 Legend Double Dagger 1.4 -0.2 89 10 28 16.1 101.97     Mostly Cloudy
07:00 Legend Double Dagger 1.0 -0.6 89 10 22 16.1 102.02     LegendNANA
08:00 Legend Double Dagger 1.4 -0.4 88 10 23 24.1 102.06     LegendNANA
09:00 Legend Double Dagger 1.1 -0.4 90 10 16 16.1 102.11     Mostly Cloudy
10:00 Legend Double Dagger 1.6 -0.2 88 11 26 24.1 102.16     LegendNANA
11:00 Legend Double Dagger 0.9 0.0 94 9 26 16.1 102.18     Snow Showers
12:00 Legend Double Dagger 1.8 -0.6 84 11 36 24.1 102.21     Mostly Cloudy
13:00 Legend Double Dagger 1.4 -0.4 88 11 31 16.1 102.25     LegendNANA
14:00 Legend Double Dagger 1.1 0.1 93 10 28 16.1 102.31     LegendNANA
15:00 Legend Double Dagger 1.0 -0.3 91 9 32 16.1 102.36     Snow Showers
16:00 Legend Double Dagger 0.9 -0.9 88 12 32 12.9 102.42     Snow Showers
17:00 Legend Double Dagger 1.1 -0.7 88 11 25 16.1 102.49     LegendNANA
18:00 Legend Double Dagger 1.0 -1.4 84 11 28 16.1 102.54     Mostly Cloudy
19:00 Legend Double Dagger 0.2 -1.0 92 11 26 4.8 102.57     Snow Showers
20:00 Legend Double Dagger 0.1 -1.7 88 9 27 4.8 102.60     Snow Showers
21:00 Legend Double Dagger 0.0 -2.9 81 8 25 6.4 102.64   -6 Snow Showers
22:00 Legend Double Dagger -0.3 -3.2 81 8 21 12.9 102.67   -6 LegendNANA
23:00 Legend Double Dagger -0.8 -3.0 85 6 14 12.9 102.70   -5 LegendNANA

Notes on Data Quality.

Legend

  • E = Estimated
  • M = Missing
  • NA = Not Available
  • ‡ = Partner data that is not subject to review by the National Climate Archives
Date modified: